Latest Weather Observations for Albury

IDN60801

Issued at 5:32 pm EST Sunday 29 May 2016 (issued every 30 minutes, with the page automatically refreshed every 10 minutes)

About weather observations | Map of weather stations | Latest weather observations for NSW | Other Formats
Station Details ID: 072160 Name: ALBURY AIRPORT AWS Lat: -36.07 Lon: 146.95 Height: 163.5 m
Data from the previous 72 hours. | See also: Recent months at Albury
Date/Time
EST
Temp
°C
App
Temp
°C
Dew
Point
Rel
Hum
%
Delta-T
°C
Wind Press
QNH
hPa
Press
MSL
hPa
Rain
since 9 am
mm
Dir
 
Spd
km/h
Gust
km/h
Spd
kts
Gust
kts
29/05:30pm 9.8 6.9 4.8 71 2.3 NNW 9 11 5 6 1020.8 1020.9 0.0
29/05:00pm 11.2 8.7 4.7 64 3.0 WNW 7 9 4 5 1020.4 1020.5 0.0
29/04:30pm 11.8 9.5 4.8 62 3.2 W 6 7 3 4 1020.2 1020.3 0.0
29/04:00pm 11.7 9.2 4.7 62 3.2 WNW 7 9 4 5 1020.1 1020.2 0.0
29/03:30pm 11.7 8.0 4.4 61 3.3 W 13 17 7 9 1019.9 1020.0 0.0
29/03:00pm 14.0 11.1 4.9 54 4.3 SW 9 17 5 9 1019.7 1019.8 0.0
29/02:30pm 13.4 9.1 5.1 57 3.9 WNW 17 20 9 11 1019.5 1019.6 0.0
29/02:00pm 12.8 8.5 5.2 60 3.5 WNW 17 22 9 12 1019.5 1019.6 0.0
29/01:30pm 12.8 9.1 6.2 64 3.2 WNW 15 20 8 11 1019.7 1019.8 0.0
29/01:00pm 11.4 8.4 5.9 69 2.6 W 11 22 6 12 1019.7 1019.8 0.0
29/12:30pm 10.9 9.9 7.2 78 1.8 NW 2 9 1 5 1019.9 1020.0 0.0
29/12:00pm 9.2 7.9 7.6 90 0.8 SE 4 7 2 4 1020.2 1020.3 0.0
29/11:54am 9.0 7.4 7.9 93 0.5 ESE 6 9 3 5 1020.3 1020.4 0.0
29/11:30am 7.6 5.9 7.5 99 0.0 E 6 9 3 5 1020.5 1020.6 0.0
29/11:08am 7.0 5.1 6.9 99 0.0 ENE 6 9 3 5 1020.7 1020.8 0.0
29/11:00am 6.4 4.8 6.3 99 0.0 ENE 4 9 2 5 1020.7 1020.8 0.0
29/10:30am 5.8 3.7 5.8 100 0.0 NE 6 9 3 5 1020.7 1020.8 0.0
29/10:00am 5.3 2.9 5.2 99 0.0 N 7 9 4 5 1020.5 1020.6 0.0
29/09:30am 5.2 3.3 5.1 99 0.0 ENE 4 9 2 5 1020.2 1020.3 0.0
29/09:00am 5.2 3.0 5.1 99 0.0 ESE 6 11 3 6 1019.9 1020.0 0.2
29/08:30am 4.7 3.1 4.6 99 0.0 WNW 2 6 1 3 1019.6 1019.7 0.2
29/08:00am 3.6 2.2 3.5 99 0.0 CALM 0 0 0 0 1019.2 1019.3 0.2
29/07:50am 2.6 1.0 2.5 99 0.0 CALM 0 0 0 0 1019.1 1019.2 0.2
29/07:30am 2.0 0.3 1.9 99 0.0 CALM 0 0 0 0 1018.9 1019.0 0.2
29/07:00am 1.6 -0.2 1.5 99 0.0 CALM 0 0 0 0 1018.6 1018.7 0.2
29/06:59am 1.5 -0.3 1.2 98 0.1 CALM 0 0 0 0 1018.5 1018.6 0.2
29/06:30am 1.0 -0.9 0.7 98 0.1 CALM 0 0 0 0 1018.3 1018.4 0.2
29/06:00am 1.3 -0.5 1.0 98 0.1 CALM 0 0 0 0 1018.0 1018.1 0.2
29/05:30am 1.2 -0.6 0.9 98 0.1 CALM 0 0 0 0 1017.8 1017.9 0.2
29/05:25am 1.3 -0.5 1.0 98 0.1 CALM 0 0 0 0 1017.7 1017.8 0.2
29/05:00am 1.1 -0.8 0.7 97 0.1 CALM 0 0 0 0 1017.4 1017.5 0.2
29/04:56am 1.4 -0.4 1.1 98 0.1 CALM 0 0 0 0 1017.4 1017.5 0.2
29/04:30am 2.4 0.7 2.1 98 0.1 CALM 0 0 0 0 1017.2 1017.3 0.2
29/04:00am 2.4 0.7 2.1 98 0.1 CALM 0 0 0 0 1017.0 1017.1 0.2
29/03:30am 2.8 1.2 2.5 98 0.1 CALM 0 0 0 0 1016.9 1017.0 0.2
29/03:00am 2.7 1.1 2.3 97 0.2 CALM 0 0 0 0 1016.9 1017.0 0.2
29/02:46am 3.2 1.7 2.8 97 0.2 CALM 0 0 0 0 1016.8 1016.8 0.2
29/02:30am 3.2 1.6 2.6 96 0.2 CALM 0 0 0 0 1016.6 1016.6 0.2
29/02:26am 3.2 1.6 2.5 95 0.3 CALM 0 0 0 0 1016.6 1016.6 0.2
29/02:00am 3.7 2.2 3.1 96 0.2 CALM 0 6 0 3 1016.5 1016.5 0.2
29/01:30am 3.9 2.4 3.2 95 0.3 CALM 0 0 0 0 1016.2 1016.2 0.2
29/01:00am 3.9 2.4 3.0 94 0.4 CALM 0 0 0 0 1016.0 1016.0 0.2
29/12:30am 4.2 2.6 2.7 90 0.6 CALM 0 0 0 0 1016.0 1016.0 0.2
29/12:00am 4.4 2.9 2.8 89 0.7 CALM 0 4 0 2 1015.8 1015.8 0.2
 
Date/Time
EST
Temp
°C
App
Temp
°C
Dew
Point
Rel
Hum
%
Delta-T
°C
Wind Press
QNH
hPa
Press
MSL
hPa
Rain
since 9 am
mm
Dir
 
Spd
km/h
Gust
km/h
Spd
kts
Gust
kts
28/11:30pm 5.6 3.8 3.3 85 1.0 E 2 7 1 4 1015.6 1015.7 0.2
28/11:00pm 6.5 3.9 3.1 79 1.4 NNW 6 7 3 4 1015.4 1015.5 0.2
28/10:30pm 8.0 5.0 4.0 76 1.7 NNW 9 11 5 6 1015.1 1015.2 0.2
28/10:00pm 8.7 6.1 4.1 73 2.0 NNW 7 11 4 6 1014.8 1014.9 0.2
28/09:30pm 8.1 5.8 4.7 79 1.5 NNE 6 9 3 5 1014.7 1014.8 0.2
28/09:00pm 7.8 4.4 4.0 77 1.7 W 11 13 6 7 1014.3 1014.4 0.2
28/08:30pm 7.8 4.8 4.0 77 1.7 W 9 13 5 7 1014.2 1014.3 0.2
28/08:00pm 8.6 6.1 3.8 72 2.1 WSW 6 9 3 5 1014.0 1014.1 0.2
28/07:30pm 9.0 5.3 4.2 72 2.1 WSW 13 17 7 9 1013.5 1013.6 0.2
28/07:00pm 9.6 6.3 4.4 70 2.3 W 11 17 6 9 1013.1 1013.2 0.2
28/06:30pm 9.6 6.3 4.6 71 2.2 W 11 13 6 7 1012.7 1012.8 0.2
28/06:00pm 9.9 6.2 4.7 70 2.4 W 13 17 7 9 1012.3 1012.4 0.2
28/05:30pm 10.3 7.4 4.5 67 2.6 WNW 9 13 5 7 1011.7 1011.8 0.2
28/05:00pm 11.0 7.3 4.5 64 3.0 W 13 17 7 9 1011.2 1011.2 0.2
28/04:30pm 12.7 9.0 4.7 58 3.7 WNW 13 17 7 9 1010.8 1010.8 0.2
28/04:00pm 13.3 8.4 4.2 54 4.2 W 19 24 10 13 1010.4 1010.4 0.2
28/03:30pm 13.7 8.5 3.5 50 4.6 WSW 20 26 11 14 1010.0 1010.0 0.2
28/03:00pm 14.3 9.1 2.5 45 5.3 W 19 26 10 14 1009.5 1009.5 0.2
28/02:30pm 14.0 9.1 4.9 54 4.3 WNW 20 30 11 16 1009.0 1009.1 0.2
28/02:00pm 13.9 10.0 5.5 57 4.0 WNW 15 24 8 13 1008.9 1009.0 0.2
28/01:30pm 13.4 8.8 5.8 60 3.6 WNW 19 24 10 13 1008.8 1008.9 0.2
28/01:00pm 13.5 9.5 4.9 56 4.0 WSW 15 20 8 11 1008.8 1008.9 0.0
28/12:30pm 13.2 10.3 4.4 55 4.1 WNW 9 17 5 9 1008.6 1008.7 0.0
28/12:00pm 13.0 10.8 5.2 59 3.7 WSW 6 13 3 7 1008.9 1009.0 0.0
28/11:30am 11.7 9.3 4.4 61 3.3 SW 6 11 3 6 1009.0 1009.1 0.0
28/11:00am 10.6 9.0 4.3 65 2.8 SW 2 6 1 3 1009.2 1009.3 0.0
28/10:30am 10.2 7.6 4.4 67 2.6 SE 7 11 4 6 1009.2 1009.3 0.0
28/10:00am 10.4 9.1 5.8 73 2.1 SSE 2 6 1 3 1009.2 1009.3 0.0
28/09:30am 8.6 7.8 6.4 86 1.0 CALM 0 7 0 4 1009.0 1009.1 0.0
28/09:00am 8.2 7.3 6.0 86 1.0 CALM 0 0 0 0 1008.8 1008.9 0.0
28/08:30am 7.9 6.3 6.4 90 0.7 WNW 4 7 2 4 1008.7 1008.8 0.0
28/08:00am 7.4 6.4 5.7 89 0.8 CALM 0 0 0 0 1008.5 1008.6 0.0
28/07:30am 7.5 5.3 5.5 87 0.9 SSE 6 9 3 5 1008.2 1008.3 0.0
28/07:00am 7.7 5.9 5.3 85 1.1 SE 4 7 2 4 1007.8 1007.9 0.0
28/06:30am 7.7 5.4 5.5 86 1.0 SSE 7 13 4 7 1007.2 1007.3 0.0
28/06:00am 7.7 5.4 5.5 86 1.0 SSE 7 11 4 6 1007.1 1007.2 0.0
28/05:30am 7.6 5.5 5.6 87 0.9 SE 6 9 3 5 1006.8 1006.9 0.0
28/05:00am 7.4 6.4 5.7 89 0.8 CALM 0 0 0 0 1006.8 1006.9 0.0
28/04:30am 7.1 6.1 5.6 90 0.7 CALM 0 0 0 0 1006.8 1006.9 0.0
28/04:00am 6.7 5.7 5.5 92 0.5 CALM 0 0 0 0 1006.7 1006.8 0.0
28/03:30am 6.5 5.5 5.5 93 0.4 CALM 0 0 0 0 1006.8 1006.9 0.0
28/03:00am 6.1 5.0 5.2 94 0.4 CALM 0 0 0 0 1007.0 1007.1 0.0
28/02:30am 5.8 3.9 5.1 95 0.3 E 4 7 2 4 1007.2 1007.3 0.0
28/02:00am 5.5 3.2 4.6 94 0.4 SE 6 9 3 5 1007.3 1007.4 0.0
28/01:30am 5.4 2.9 5.0 97 0.2 SE 7 11 4 6 1007.6 1007.7 0.0
28/01:00am 5.0 3.9 4.9 99 0.0 CALM 0 0 0 0 1007.9 1008.0 0.0
28/12:30am 4.8 3.6 4.7 99 0.0 CALM 0 0 0 0 1008.1 1008.2 0.0
28/12:00am 4.4 3.1 4.3 99 0.0 CALM 0 0 0 0 1008.5 1008.6 0.0
 
Date/Time
EST
Temp
°C
App
Temp
°C
Dew
Point
Rel
Hum
%
Delta-T
°C
Wind Press
QNH
hPa
Press
MSL
hPa
Rain
since 9 am
mm
Dir
 
Spd
km/h
Gust
km/h
Spd
kts
Gust
kts
27/11:30pm 4.7 1.8 4.6 99 0.0 SE 9 11 5 6 1008.6 1008.7 0.0
27/11:21pm 4.5 1.9 4.4 99 0.0 SE 7 11 4 6 1008.7 1008.8 0.0
27/11:03pm 3.9 2.1 3.6 98 0.1 SE 2 11 1 6 1008.7 1008.8 0.0
27/11:00pm 4.4 3.1 4.1 98 0.1 CALM 0 0 0 0 1008.7 1008.8 0.0
27/10:30pm 5.0 3.8 4.6 97 0.2 CALM 0 0 0 0 1008.8 1008.9 0.0
27/10:24pm 4.9 3.7 4.5 97 0.2 CALM 0 0 0 0 1008.9 1009.0 0.0
27/10:09pm 4.3 2.9 3.6 95 0.3 CALM 0 0 0 0 1009.0 1009.1 0.0
27/10:00pm 4.3 2.9 3.4 94 0.4 CALM 0 0 0 0 1009.0 1009.1 0.0
27/09:30pm 5.2 4.0 4.5 95 0.3 CALM 0 0 0 0 1009.0 1009.1 0.0
27/09:00pm 5.0 2.5 3.8 92 0.5 ENE 6 7 3 4 1009.1 1009.2 0.0
27/08:30pm 5.7 3.6 4.0 89 0.7 ESE 4 9 2 5 1009.0 1009.1 0.0
27/08:00pm 6.9 5.8 5.1 88 0.8 CALM 0 0 0 0 1009.1 1009.2 0.0
27/07:30pm 6.6 5.3 3.9 83 1.2 CALM 0 0 0 0 1008.9 1009.0 0.0
27/07:00pm 8.1 5.8 4.9 80 1.4 NNE 6 7 3 4 1008.8 1008.9 0.0
27/06:30pm 9.1 5.9 5.3 77 1.7 NNW 11 13 6 7 1008.6 1008.7 0.0
27/06:00pm 9.6 6.5 5.4 75 1.9 NW 11 13 6 7 1008.4 1008.5 0.0
27/05:30pm 10.0 6.4 5.2 72 2.2 NW 13 15 7 8 1008.1 1008.2 0.0
27/05:00pm 11.1 7.0 4.6 64 3.0 WNW 15 19 8 10 1007.8 1007.9 0.0
27/04:30pm 12.4 8.5 5.3 62 3.3 WNW 15 20 8 11 1007.6 1007.7 0.0
27/04:00pm 12.8 7.5 5.2 60 3.6 W 22 28 12 15 1007.3 1007.4 0.0
27/03:30pm 13.2 8.2 4.4 55 4.1 W 20 35 11 19 1007.2 1007.3 0.0
27/03:00pm 13.7 9.9 5.6 58 3.9 WSW 15 20 8 11 1007.1 1007.2 0.0
27/02:30pm 12.2 7.4 4.9 61 3.4 WSW 19 28 10 15 1007.1 1007.2 0.0
27/02:00pm 12.0 7.2 4.7 61 3.4 SW 19 24 10 13 1007.1 1007.2 0.0
27/01:30pm 12.5 7.7 4.5 58 3.7 SW 19 33 10 18 1007.1 1007.2 0.0
27/01:00pm 12.4 7.2 5.3 62 3.3 W 22 33 12 18 1007.2 1007.3 0.0
27/12:30pm 11.6 7.0 5.5 66 2.8 W 19 24 10 13 1007.3 1007.4 0.0
27/12:00pm 12.2 7.6 6.3 67 2.8 W 20 28 11 15 1007.5 1007.6 0.0
27/11:30am 12.1 7.7 7.4 73 2.3 W 20 26 11 14 1007.8 1007.9 0.0
27/11:00am 11.4 7.8 6.9 74 2.2 W 15 22 8 12 1008.2 1008.3 0.0
27/10:30am 10.2 6.9 6.4 77 1.8 W 13 19 7 10 1008.6 1008.7 0.0
27/10:00am 9.6 5.6 6.5 81 1.5 WNW 17 20 9 11 1008.6 1008.7 0.0
27/09:30am 8.7 5.0 6.2 84 1.2 WSW 15 22 8 12 1008.6 1008.7 0.0
27/09:00am 8.0 5.7 5.8 86 1.0 SW 7 13 4 7 1008.4 1008.5 1.2
27/08:30am 7.5 5.7 5.6 88 0.9 S 4 7 2 4 1008.2 1008.3 1.2
27/08:00am 6.7 4.3 5.3 91 0.6 SW 7 13 4 7 1007.9 1008.0 1.2
27/07:30am 5.9 3.6 4.9 93 0.4 W 6 9 3 5 1007.7 1007.8 1.2
27/07:00am 4.9 2.4 3.6 91 0.5 WNW 6 13 3 7 1007.5 1007.6 1.2
27/06:30am 5.8 2.9 4.6 92 0.5 W 9 11 5 6 1007.4 1007.5 1.2
27/06:00am 6.1 3.2 4.9 92 0.5 W 9 15 5 8 1007.1 1007.2 1.2
27/05:30am 5.6 2.3 4.4 92 0.5 WNW 11 13 6 7 1007.1 1007.2 1.2
27/05:00am 6.0 3.1 4.8 92 0.5 NNW 9 11 5 6 1007.0 1007.1 1.2
27/04:30am 6.2 4.3 4.7 90 0.7 N 4 9 2 5 1006.9 1007.0 1.2
27/04:00am 6.7 4.3 5.2 90 0.7 WNW 7 11 4 6 1006.6 1006.7 1.2
27/03:30am 6.5 4.1 5.1 91 0.6 NNW 7 11 4 6 1006.7 1006.8 1.2
27/03:00am 7.0 3.5 5.5 90 0.7 NW 13 15 7 8 1006.5 1006.5 1.2
27/02:30am 7.7 3.5 5.8 88 0.9 WNW 17 20 9 11 1006.5 1006.5 1.2
27/02:00am 7.9 3.8 6.0 88 0.9 WNW 17 22 9 12 1006.3 1006.3 1.2
27/01:30am 8.1 3.5 6.4 89 0.8 W 20 32 11 17 1005.8 1005.8 1.2
27/01:00am 8.4 5.1 6.4 87 0.9 W 13 19 7 10 1005.9 1005.9 1.2
27/12:30am 8.2 6.0 6.2 87 0.9 W 7 15 4 8 1006.0 1006.0 1.2
27/12:00am 8.6 5.6 6.2 85 1.1 W 11 17 6 9 1006.0 1006.0 1.2
 
Date/Time
EST
Temp
°C
App
Temp
°C
Dew
Point
Rel
Hum
%
Delta-T
°C
Wind Press
QNH
hPa
Press
MSL
hPa
Rain
since 9 am
mm
Dir
 
Spd
km/h
Gust
km/h
Spd
kts
Gust
kts
26/11:30pm 8.8 5.9 6.6 86 1.0 WNW 11 17 6 9 1006.0 1006.0 1.2
26/11:00pm 8.7 6.7 6.3 85 1.1 WNW 6 11 3 6 1005.9 1005.9 1.2
26/10:30pm 9.5 5.9 6.9 84 1.2 W 15 20 8 11 1005.7 1005.7 1.2
26/10:00pm 9.9 5.6 7.2 83 1.3 W 19 28 10 15 1005.7 1005.7 1.2
26/09:30pm 10.0 5.6 7.4 84 1.2 W 20 28 11 15 1005.5 1005.5 1.2
26/09:00pm 10.3 7.7 7.9 85 1.2 WSW 11 17 6 9 1005.3 1005.3 1.2
26/08:30pm 10.5 6.5 8.4 87 1.0 W 19 28 10 15 1004.9 1004.9 1.2
26/08:24pm 10.5 7.0 8.6 88 0.9 W 17 22 9 12 1004.8 1004.8 1.2
26/08:00pm 10.7 7.6 8.8 88 0.9 W 15 20 8 11 1004.9 1004.9 1.2
26/07:40pm 10.7 7.2 8.6 87 1.0 W 17 24 9 13 1004.6 1004.6 1.2
26/07:37pm 10.7 7.2 8.6 87 1.0 W 17 24 9 13 1004.5 1004.5 1.2
26/07:30pm 10.7 6.6 8.6 87 1.0 W 20 32 11 17 1004.5 1004.5 1.2
26/07:00pm 11.3 7.3 8.9 85 1.2 W 20 28 11 15 1004.1 1004.1 1.2
26/06:56pm 11.5 7.5 9.2 86 1.2 W 20 28 11 15 1004.0 1004.0 1.2
26/06:30pm 11.7 7.8 9.3 85 1.2 WNW 20 30 11 16 1003.4 1003.4 1.2
26/06:00pm 12.1 9.7 10.0 87 1.1 WNW 13 19 7 10 1003.1 1003.1 1.2

Other Formats:

Comma delimited format used in spreadsheet applications
http://www.bom.gov.au/fwo/IDN60801/IDN60801.95896.axf

JavaScript Object Notation format (JSON) in row-major order
http://www.bom.gov.au/fwo/IDN60801/IDN60801.95896.json